Regional Weather Roundup
Issued by NWS

Home | Current Version | Previous Version | Graphics & Text | Print | Product List | Glossary On
Versions: 1 2 3 4 5 6 7 8 9 10 11 12 13 14 15 16 17 18 19 20 21 22 23 24 25 26 27 28 29 30 31 32 33 34 35 36 37 38 39 40 41 42 43 44 45 46 47 48 49 50
000
ASUS45 KBOU 251707
RWRCO

WEATHER ROUNDUP FOR COLORADO
NATIONAL WEATHER SERVICE DENVER/BOULDER CO
1100 AM MDT SAT APR 25 2015

NOTE: "FAIR" INDICATES FEW OR NO CLOUDS BELOW 12000 FEET WITH NO
SIGNIFICANT WEATHER AND/OR OBSTRUCTIONS TO VISIBILITY.

COZ001>005-013-030-031-251800-
...NORTHWEST COLORADO...

CITY           SKY/WX    TMP DP  RH WIND       PRES   REMARKS
CRAIG          LGT RAIN  35  33  92 S9        29.89F FOG     WCI  28
HAYDEN         CLOUDY    32  28  86 W7        29.90R VSB 1   WCI  26
MEEKER         LGT SNOW  34  32  92 E6        29.90S FOG     WCI  29
MOUNT WERNER   NOT AVBL
STEAMBOAT SPGS CLOUDY    37  35  92 SW13G22   29.87R
WALDEN         CLOUDY    50  28  43 SW16G22   29.83S
$$

COZ006>008-011-251800-
...WEST CENTRAL VALLEYS...

CITY           SKY/WX    TMP DP  RH WIND       PRES   REMARKS
GRAND JUNCTION CLOUDY    46  41  82 E3        29.88S
MONTROSE       CLOUDY    53  35  50 W10       29.88S
EAGLE          CLOUDY    52  30  43 W7        29.84F
RIFLE          LGT RAIN  42  38  85 W15       29.89S
DELTA          CLOUDY    52  41  65 MISG      29.88S
NUCLA          CLOUDY    52  36  54 SW10      29.92S
$$

COZ017>023-064>068-251800-
...SOUTHWEST COLORADO...

CITY           SKY/WX    TMP DP  RH WIND       PRES   REMARKS
DURANGO        CLOUDY    46  37  71 W3        29.96S
CORTEZ         PTSUNNY   54  38  54 S13       29.92S
PAGOSA SPRINGS LGT RAIN  42  38  86 CALM      29.99S
TELLURIDE      PTSUNNY   43  31  62 CALM      29.96F
WOLF CREEK PAS NOT AVBL
$$

COZ009-010-012-014-032>034-037-058>063-251800-
...CENTRAL COLORADO...

CITY           SKY/WX    TMP DP  RH WIND       PRES   REMARKS
ASPEN          PTSUNNY   49  28  44 N7        29.85S
BUENA VISTA    PTSUNNY   49  25  38 W14       29.88S
COPPER MTN     PTSUNNY   34  19  55 S8        29.99S WCI  27
BERTHOUD PASS  FAIR      27  19  74 W18G24    29.99S WCI  13
COTTONWOOD PAS CLOUDY    43  19  39 W7G18     29.94S
GUNNISON       MOSUNNY   45  30  57 CALM      29.94F
KREMMLING      PTSUNNY   54  25  32 W12G23    29.85F
LEADVILLE      CLOUDY    37  19  48 VRB5      29.91S
SALIDA         PTSUNNY   55  25  30 W8G18     29.95S
SUNLIGHT       SNOW      32  32 100 CALM      29.97S VSB 1/4
WILKERSON PASS MOSUNNY   39  21  48 SW7G17    29.98S
$$

COZ069>075-251800-
...SAN LUIS VALLEY/SANGRE DE CRISTO MOUNTAINS...

CITY           SKY/WX    TMP DP  RH WIND       PRES   REMARKS
ALAMOSA        MOSUNNY   52  24  33 VRB5      29.90F
LA VETA PASS   MOSUNNY   41  27  56 SW8G17    29.97R
SAGUACHE       PTSUNNY   45  27  49 S5        29.93F
$$

COZ035-036-038>040-251800-
...NORTHERN COLORADO FRONT RANGE...

CITY           SKY/WX    TMP DP  RH WIND       PRES   REMARKS
DENVER INTL AP PTSUNNY   63  24  22 CALM      29.73F
DMNS CITY PARK   N/A     65  24  21 E10       29.71F
AURORA         NOT AVBL
FRONT RANGE AP PTSUNNY   64  27  24 E3        29.75S
ERIE MUNI ARPT MOSUNNY   64  26  23 E6        29.71F
BOULDER MUN AP MOSUNNY   63  32  31 NE5       29.72S
CENTENNIAL     PTSUNNY   63  22  20 S7        29.74F
BROOMFIELD     PTSUNNY   63  27  25 E7        29.74S
FORT COLLINS   MOSUNNY   63  36  36 SE13      29.74F
LONGMONT       MOSUNNY   66  36  32 E7        29.74S
$$

COZ041-046-047-076>085-087-088-251800-
...PIKES PEAK/PALMER DIVIDE AND SOUTHERN FOOTHILLS...

CITY           SKY/WX    TMP DP  RH WIND       PRES   REMARKS
COLO. SPRINGS  PTSUNNY   63  19  18 SE15G21   29.78F
A. F. ACADEMY  MOSUNNY   63  21  20 S15       29.77F
ELLICOTT       MOSUNNY  N/A N/A N/A SE8       29.78S
FALCON         MOSUNNY   61  17  18 S10       29.82S
FORT CARSON    NOT AVBL
LIMON          SUNNY     61  28  28 S6        29.76F
MONUMENT HILL  MOSUNNY   59  21  23 SW7       29.79F
TRINIDAD       SUNNY     63  19  18 CALM      29.79F
$$

COZ042>045-048>051-090-091-251800-
...NORTHEAST COLORADO...

CITY           SKY/WX    TMP DP  RH WIND       PRES   REMARKS
GREELEY ARPT   MOSUNNY   64  37  36 E12       29.74F
AKRON          SUNNY     63  37  38 VRB6      29.75R
BURLINGTON     SUNNY     65  41  41 N12       29.74F
WRAY           SUNNY     64  44  49 NW7       29.72F
STERLING       SUNNY     63  43  48 NE6       29.72S
HOLYOKE        SUNNY     63  45  51 NE8       29.72S
FORT MORGAN    SUNNY     63  33  32 CALM      29.75S
$$

COZ086-089-092>099-251800-
...SOUTHEAST COLORADO...

CITY           SKY/WX    TMP DP  RH WIND       PRES   REMARKS
PUEBLO         MOSUNNY   68  25  19 W14       29.73F
LA JUNTA       SUNNY     69  30  23 W12       29.73F
LAMAR          SUNNY     67  31  26 W6        29.72F
SPRINGFIELD      N/A     68  27  21 CALM      29.75S
$$



USA.gov is the U.S. government's official web portal to all federal, state and local government web resources and services.